Regional Weather Roundup
Issued by NWS Raleigh/Durham, NC

Home | Current Version | Previous Version | Text Only | Print | Product List | Glossary On
Versions: 1 2 3 4 5 6 7 8 9 10 11 12 13 14 15 16 17 18 19 20 21 22 23 24 25 26 27
000
ASUS42 KRAH 250810
RWRRAH
NORTH CAROLINA WEATHER ROUNDUP
NATIONAL WEATHER SERVICE RALEIGH NC
400 AM EDT FRI APR 25 2014

NOTE: "FAIR" INDICATES FEW OR NO CLOUDS BELOW 12,000 FEET WITH NO
SIGNIFICANT WEATHER AND/OR OBSTRUCTIONS TO VISIBILITY.

NCZ001-053-055-056-065-067-250900-
WESTERN NORTH CAROLINA

CITY           SKY/WX    TMP DP  RH WIND       PRES   REMARKS
ASHEVILLE      CLOUDY    51  42  71 CALM      29.95F
JEFFERSON      CLOUDY    52  36  54 CALM      29.95F
MORGANTON      CLOUDY    49  46  91 CALM      29.98F
HICKORY        CLOUDY    54  47  77 CALM      29.93F
RUTHERFORDTON  CLOUDY    53  47  79 CALM      29.95R
MOUNT AIRY     CLEAR     50  44  80 CALM      29.94F
BOONE          CLOUDY    55  38  53 S10G17    29.95F
$$

NCZ021-022-025-041-071-084-088-250900-
CENTRAL NORTH CAROLINA

CITY           SKY/WX    TMP DP  RH WIND       PRES   REMARKS
CHARLOTTE      PTCLDY    56  52  86 S3        29.94F
GREENSBORO     PTCLDY    53  46  77 S7        29.95S
WINSTON-SALEM  CLEAR     52  44  74 SE3       29.96F
RALEIGH-DURHAM PTCLDY    52  43  71 SE3       29.98S
FORT BRAGG     CLEAR     53  49  89 E2        29.97S
FAYETTEVILLE   CLEAR     51  47  86 CALM      29.97R
CHAPEL HILL    CLEAR     49  42  77 CALM      29.99R
BURLINGTON     CLEAR     47  41  80 CALM      29.96S
LAURINBURG     CLEAR     50  48  93 E3        29.97S
$$

NCZ011-015-027-028-043-044-047-080-103-250900-
NORTHEASTERN NORTH CAROLINA

CITY           SKY/WX    TMP DP  RH WIND       PRES   REMARKS
ROCKY MT-WILSO CLEAR     45  43  93 CALM      30.00R
GREENVILLE     CLEAR     48  45  87 CALM      30.02S
WASHINGTON     CLEAR     50  46  85 CALM      30.01S
ELIZABETH CITY CLEAR     49  46  90 CALM      30.02R
MANTEO         CLEAR     46  44  95 CALM      30.02R
CAPE HATTERAS  CLEAR     57  45  64 S5        30.02S
$$

NCZ078-087-090-091-093-098-101-250900-
SOUTHEASTERN NORTH CAROLINA

CITY           SKY/WX    TMP DP  RH WIND       PRES   REMARKS
LUMBERTON      CLEAR     51  49  92 SE3       29.96S
GOLDSBORO      MOCLDY    53  51  94 E2        29.98R
KINSTON        PTCLDY    54  48  82 SE3       30.00S
KENANSVILLE    PTCLDY    50  48  90 CALM      30.00R
NEW BERN       PTCLDY    50  46  86 CALM      30.01S
CHERRY POINT   MOCLDY    53  46  77 CALM      30.01S
BEAUFORT       PTCLDY    55  51  86 E3        30.00S
JACKSONVILLE   PTCLDY    56  56 100 CALM      29.99R
WILMINGTON     CLEAR     56  53  90 N3        29.98R
$$




USA.gov is the U.S. government's official web portal to all federal, state and local government web resources and services.